Flag for Germany Weather past 2 weeks in Backnang, Baden-Württemberg, Germany

Now
41 °F

Overcast.


Feels Like: 35 °F
Forecast: 36 / 42 °F
Wind: 9 mph from West

Location: Oehringen

Current Time: Dec 20, 2014 at 8:53:21 PM

Latest Report: Dec 20, 2014 at 8:00 PM


Visibility: 38 mi

Pressure: 30.30 "Hg

Humidity: 81%

Dew point: 36 °F

Location of BacknangLocation

Historic Weather in Backnang — Graph

°F

Backnang temperature yesterday

Maximum temperature yesterday: 53 °F (at 2:00 PM)
Minimum temperature yesterday: 46 °F (at 9:00 PM)
Average temperature yesterday: 50 °F

Past Weeks' High & Low Weather Summary

 TemperatureHumidityPressure
High53 °F (Dec 18, 8:00 PM)100% (Dec 15, 4:00 AM)30.47 "Hg (Dec 15, 4:00 AM)
Low27 °F (Dec 9, 6:00 AM)57% (Dec 13, 10:00 AM)29.72 "Hg (Dec 12, 6:00 PM)
Average42 °F87%30.08 "Hg
* Reported Dec 5 7:00 PM — Dec 20 7:00 PM, Backnang, Weather by CustomWeather, © 2014

Note: Actual official high and low records may vary slightly from our data, if they occured in-between our weather recording intervals... More about our weather records

Advertising

Backnang weather history for previous 24 hours

 ConditionsComfort  
Time TempWeatherWind HumidityBarometerVisibility
7:00 PM
Dec 20
41 °FOvercast.10 mph85%30.25 "Hg25 mi
6:00 PM40 °FLight rain. Overcast.8 mph93%30.24 "Hg16 mi
5:00 PM43 °FOvercast.12 mph74%30.20 "Hg25 mi
4:00 PM43 °FDrizzle. Overcast.10 mph72%30.20 "Hg14 mi
3:00 PM44 °FOvercast.10 mph67%30.20 "Hg31 mi
2:00 PM44 °FOvercast.10 mph68%30.22 "Hg43 mi
1:00 PM43 °FOvercast.8 mph71%30.25 "Hg31 mi
12:00 PM43 °FOvercast.7 mph73%30.27 "Hg31 mi
11:00 AM42 °FOvercast.10 mph72%30.29 "Hg31 mi
10:00 AM40 °FScattered clouds.9 mph78%30.30 "Hg34 mi
9:00 AM39 °FSunny.7 mph84%30.30 "Hg18 mi
8:00 AM39 °FPassing clouds.6 mph88%30.30 "Hg17 mi
7:00 AM39 °FPassing clouds.6 mph84%30.29 "Hg28 mi
6:00 AM38 °FClear.5 mph86%30.29 "Hg28 mi
5:00 AM39 °FClear.5 mph79%30.28 "Hg40 mi
4:00 AM39 °FOvercast.5 mph82%30.28 "Hg34 mi
3:00 AM41 °FOvercast.5 mph77%30.26 "Hg40 mi
2:00 AM43 °FPassing clouds.5 mph86%30.23 "Hg17 mi
1:00 AM45 °FOvercast.3 mph94%30.22 "Hg9 mi
12:00 AM46 °FOvercast.2 mph95%30.19 "Hg7 mi
11:00 PM
Dec 19
46 °FOvercast.5 mph96%30.14 "Hg11 mi
10:00 PM47 °FRain. Overcast.6 mph96%30.11 "Hg1 mi
9:00 PM46 °FRain. Overcast.10 mph89%30.09 "Hg1 mi
8:00 PM49 °FLight rain. Overcast.8 mph92%30.03 "Hg3 mi
Weather by CustomWeather, © 2014

See weather overviewHow to use our weather pages